Change the Weather History Date:

Saturday, April 5, 2014

  Actual Average (KLCI) Record (KLCI)
Temperature  
Mean Temperature 38 °F -  
Max Temperature 45 °F 49 °F 69 °F (1991)
Min Temperature 32 °F 30 °F 12 °F (1995)
Degree Days  
Heating Degree Days 26    
Moisture  
Dew Point 30 °F    
Average Humidity 76    
Maximum Humidity 100    
Minimum Humidity 48    
Precipitation  
Precipitation 0.05 in - - ()
Sea Level Pressure  
Sea Level Pressure 29.76 in    
Wind  
Wind Speed 6 mph (WNW)    
Max Wind Speed 18 mph    
Max Gust Speed 30 mph    
Visibility 8 miles    
Events Fog , Snow    
Averages and records for this station are not official NWS values.
T = Trace of Precipitation, MM = Missing Value Source: NWS Daily Summary

Daily Weather History Graph

Daily Weather History Graph

Search for Another Location

Airport or City:

Trip Planner

Search our weather history database for the weather conditions in past years. The results will help you decide how hot, cold, wet, or windy it might be!

Date:

Astronomy

Apr. 05, 2014 Rise Set
Actual Time 6:21 AM EDT 7:18 PM EDT
Civil Twilight 5:52 AM EDT 7:47 PM EDT
Nautical Twilight 5:17 AM EDT 8:22 PM EDT
Astronomical Twilight 4:40 AM EDT 8:59 PM EDT
Moon 10:19 AM EDT (4/5) 12:32 AM EDT (4/5)
Length of Visible Light 13h 55m
Length of Day
12h 57m
Waxing Crescent, 34% of the Moon is Illuminated
Apr 5
Waxing Crescent
Apr 7
First Quarter
Apr 15
Full
Apr 22
Last Quarter
Apr 29
New

Hourly Weather History & Observations

Time (EDT) Temp. Windchill Dew Point Humidity Pressure Visibility Wind Dir Wind Speed Gust Speed Precip Events Conditions
12:15 AM 33.3 °F 26.4 °F 32.5 °F 97% 29.92 in 7.0 mi East 8.1 mph - N/A   Unknown
12:35 AM 33.4 °F 27.3 °F 32.5 °F 96% 29.91 in 5.0 mi East 6.9 mph - N/A   Unknown
12:55 AM 33.3 °F 27.1 °F 32.4 °F 96% 29.91 in 7.0 mi East 6.9 mph - 0.01 in Snow Light Snow
1:15 AM 33.6 °F 26.8 °F 32.4 °F 95% 29.90 in 7.0 mi East 8.1 mph - N/A   Unknown
1:35 AM 33.8 °F 29.6 °F 32.5 °F 95% 29.89 in 5.0 mi East 4.6 mph - N/A   Unknown
1:55 AM 33.8 °F 29.6 °F 32.5 °F 95% 29.89 in 4.0 mi East 4.6 mph - N/A   Unknown
2:15 AM 33.4 °F - 32.4 °F 96% 29.87 in 5.0 mi Calm Calm - N/A   Unknown
2:35 AM 33.3 °F - 32.5 °F 97% 29.86 in 4.0 mi Calm Calm - 0.01 in Snow Light Snow
2:55 AM 33.3 °F 30.2 °F 32.5 °F 97% 29.84 in 7.0 mi East 3.5 mph - 0.01 in   Unknown
3:15 AM 33.4 °F 30.4 °F 32.9 °F 98% 29.84 in 7.0 mi East 3.5 mph - 0.01 in   Unknown
3:35 AM 33.4 °F 30.4 °F 32.9 °F 98% 29.82 in 5.0 mi East 3.5 mph - 0.01 in   Unknown
3:55 AM 33.6 °F 30.6 °F 32.9 °F 97% 29.80 in 10.0 mi ESE 3.5 mph - 0.01 in   Unknown
4:15 AM 33.8 °F 29.6 °F 32.9 °F 96% 29.78 in 10.0 mi East 4.6 mph - N/A   Unknown
4:35 AM 33.8 °F - 32.9 °F 96% 29.79 in 4.0 mi Calm Calm - N/A   Unknown
4:55 AM 33.3 °F - 32.5 °F 97% 29.78 in 2.5 mi Calm Calm - 0.01 in Snow Light Snow
5:15 AM 33.4 °F - 32.9 °F 98% 29.77 in 3.0 mi Calm Calm - N/A   Unknown
5:35 AM 33.3 °F - 32.9 °F 99% 29.76 in 3.0 mi Calm Calm - 0.01 in   Unknown
5:55 AM 33.3 °F - 32.9 °F 99% 29.75 in 3.0 mi Calm Calm - 0.01 in   Unknown
6:15 AM 33.3 °F - 32.9 °F 99% 29.75 in 4.0 mi Calm Calm - N/A   Unknown
6:35 AM 33.1 °F - 32.9 °F 99% 29.74 in 2.5 mi Calm Calm - N/A   Unknown
6:55 AM 32.9 °F - 32.4 °F 98% 29.74 in 0.8 mi Calm Calm - N/A   Mist
7:15 AM 32.9 °F - 32.9 °F 100% 29.74 in 1.2 mi Calm Calm - N/A   Mist
7:35 AM 32.9 °F - 32.5 °F 99% 29.73 in 0.5 mi Calm Calm - N/A Fog Fog
7:55 AM 33.1 °F - 32.9 °F 99% 29.72 in 0.8 mi Calm Calm - N/A   Mist
8:15 AM 33.4 °F - 33.3 °F 99% 29.71 in 2.0 mi Calm Calm - N/A   Mist
8:55 AM 34.0 °F - 33.8 °F 99% 29.71 in 2.5 mi Calm Calm - N/A   Mist
9:15 AM 34.0 °F - 33.8 °F 99% 29.71 in 5.0 mi Calm Calm - N/A   Mist
9:35 AM 34.2 °F - 34.0 °F 99% 29.71 in 3.0 mi Calm Calm - N/A   Mist
9:55 AM 34.7 °F - 34.7 °F 100% 29.71 in 4.0 mi Calm Calm - N/A   Mist
10:15 AM 35.4 °F - 35.1 °F 99% 29.71 in 10.0 mi Calm Calm - N/A   Unknown
10:35 AM 36.5 °F 33.9 °F 36.1 °F 99% 29.70 in 10.0 mi WNW 3.5 mph - N/A   Unknown
10:55 AM 37.8 °F 35.3 °F 37.2 °F 98% 29.69 in 10.0 mi WNW 3.5 mph - N/A   Unknown
11:15 AM 39.2 °F 33.6 °F 35.6 °F 87% 29.69 in 10.0 mi NW 8.1 mph - N/A   Unknown
11:35 AM 40.6 °F 38.6 °F 35.6 °F 82% 29.68 in 10.0 mi NNW 3.5 mph - N/A   Unknown
11:55 AM 41.9 °F 40.0 °F 35.8 °F 79% 29.67 in 10.0 mi NW 3.5 mph - N/A   Unknown
12:15 PM 43.2 °F 39.0 °F 35.2 °F 74% 29.67 in 10.0 mi West 6.9 mph - N/A   Unknown
12:35 PM 44.6 °F 38.1 °F 32.4 °F 62% 29.67 in 10.0 mi West 13.8 mph 20.7 mph N/A   Unknown
12:55 PM 44.1 °F 37.4 °F 32.0 °F 63% 29.68 in 10.0 mi West 13.8 mph 23.0 mph N/A   Unknown
1:15 PM 43.3 °F 37.7 °F 32.0 °F 64% 29.67 in 10.0 mi NW 10.4 mph 16.1 mph N/A   Unknown
1:35 PM 45.1 °F 38.4 °F 30.2 °F 56% 29.67 in 10.0 mi West 15.0 mph 25.3 mph N/A   Unknown
1:55 PM 44.8 °F 40.4 °F 29.8 °F 56% 29.67 in 10.0 mi West 8.1 mph 18.4 mph N/A   Unknown
2:15 PM 44.4 °F 39.5 °F 29.3 °F 55% 29.67 in 10.0 mi West 9.2 mph 18.4 mph N/A   Unknown
2:35 PM 43.7 °F 38.6 °F 29.7 °F 58% 29.67 in 10.0 mi WNW 9.2 mph 19.6 mph N/A   Unknown
2:55 PM 44.1 °F 40.8 °F 28.0 °F 53% 29.66 in 10.0 mi West 5.8 mph - N/A   Unknown
3:15 PM 44.1 °F 38.6 °F 27.5 °F 52% 29.67 in 10.0 mi West 10.4 mph 17.3 mph N/A   Unknown
3:35 PM 42.8 °F 38.6 °F 30.0 °F 61% 29.68 in 10.0 mi West 6.9 mph - N/A   Unknown
3:55 PM 42.8 °F 38.6 °F 29.1 °F 58% 29.68 in 10.0 mi West 6.9 mph - N/A   Unknown
4:15 PM 42.8 °F 35.8 °F 28.2 °F 56% 29.69 in 10.0 mi WNW 13.8 mph 18.4 mph N/A   Unknown
4:35 PM 41.9 °F 35.9 °F 27.3 °F 56% 29.69 in 10.0 mi WNW 10.4 mph 20.7 mph N/A   Unknown
4:55 PM 42.4 °F 36.5 °F 26.8 °F 54% 29.69 in 10.0 mi West 10.4 mph 16.1 mph N/A   Unknown
5:15 PM 42.8 °F 36.6 °F 25.7 °F 51% 29.69 in 10.0 mi West 11.5 mph 25.3 mph N/A   Unknown
5:35 PM 42.8 °F 34.8 °F 25.0 °F 49% 29.71 in 10.0 mi West 17.3 mph 25.3 mph N/A   Unknown
5:55 PM 42.4 °F 36.5 °F 24.8 °F 50% 29.71 in 10.0 mi WSW 10.4 mph 21.9 mph N/A   Unknown
6:15 PM 41.9 °F 34.0 °F 23.5 °F 48% 29.73 in 10.0 mi West 16.1 mph 21.9 mph N/A   Unknown
6:35 PM 41.2 °F 32.4 °F 22.6 °F 48% 29.74 in 10.0 mi West 18.4 mph 27.6 mph N/A   Unknown
6:55 PM 40.6 °F 33.4 °F 22.1 °F 48% 29.76 in 10.0 mi WSW 12.7 mph 20.7 mph N/A   Unknown
7:15 PM 39.6 °F 31.3 °F 22.6 °F 51% 29.76 in 10.0 mi West 15.0 mph 25.3 mph N/A   Unknown
7:35 PM 38.8 °F 30.4 °F 23.2 °F 53% 29.78 in 10.0 mi West 15.0 mph 29.9 mph N/A   Unknown
7:55 PM 38.3 °F 29.7 °F 22.8 °F 54% 29.79 in 10.0 mi West 15.0 mph 27.6 mph N/A   Unknown
8:15 PM 37.4 °F 29.3 °F 23.0 °F 56% 29.81 in 10.0 mi West 12.7 mph 26.5 mph N/A   Unknown
8:35 PM 37.4 °F 28.2 °F 23.0 °F 56% 29.82 in 10.0 mi West 16.1 mph 24.2 mph N/A   Unknown
8:55 PM 36.7 °F 29.9 °F 23.5 °F 59% 29.83 in 10.0 mi West 9.2 mph 17.3 mph N/A   Unknown
9:15 PM 36.5 °F 28.2 °F 23.7 °F 60% 29.83 in 10.0 mi West 12.7 mph 20.7 mph N/A   Unknown
9:35 PM 36.3 °F 30.8 °F 23.9 °F 61% 29.84 in 10.0 mi West 6.9 mph 20.7 mph N/A   Unknown
9:55 PM 36.5 °F 28.2 °F 23.7 °F 60% 29.86 in 10.0 mi West 12.7 mph 24.2 mph N/A   Unknown
10:15 PM 36.1 °F 27.7 °F 24.1 °F 62% 29.86 in 10.0 mi West 12.7 mph 23.0 mph N/A   Unknown
10:35 PM 36.0 °F 27.1 °F 23.9 °F 62% 29.86 in 10.0 mi West 13.8 mph 27.6 mph N/A   Unknown
10:55 PM 35.8 °F 29.4 °F 24.1 °F 62% 29.87 in 10.0 mi West 8.1 mph 19.6 mph N/A   Unknown
11:15 PM 35.8 °F 28.3 °F 23.7 °F 62% 29.87 in 10.0 mi WNW 10.4 mph 19.6 mph N/A   Unknown
11:35 PM 35.8 °F 28.3 °F 23.7 °F 62% 29.88 in 10.0 mi WNW 10.4 mph - N/A   Unknown
11:55 PM 35.8 °F 28.8 °F 23.4 °F 61% 29.88 in 10.0 mi WNW 9.2 mph 19.6 mph N/A   Unknown